Regional Weather Roundup
Issued by NWS Grand Forks, ND

Home | Current Version | Previous Version | Graphics & Text | Print | Product List | Glossary On
Versions: 1 2 3 4 5 6 7 8 9 10 11 12 13 14 15 16 17 18 19 20 21 22 23 24 25 26 27 28 29 30 31 32 33 34 35 36 37 38 39 40 41 42 43 44 45 46 47 48 49 50
000
ASUS43 KFGF 271331
RWRFGF
PRAIRIE TO PINES  WEATHER ROUNDUP
NATIONAL WEATHER SERVICE EASTERN NORTH DAKOTA/GRAND FORKS ND
700 AM CST FRI FEB 27 2015

 **SATELLITE DATA USED TO AUGMENT SKY COVER AT AUTOMATED STATIONS**
 *****  WEATHER ACROSS EASTERN NORTH DAKOTA  *****

CITY           SKY/WX    TMP DP  RH WIND       PRES   REMARKS
GRAND FORKS    PTCLDY   -16 -21  78 S5        30.44F WCI -29
GRAND FRKS AFB PTCLDY   -12 -19  71 W6        30.43F WCI -26
GRAND FRKS NWS   N/A     -9 N/A N/A W3          N/A
DEVILS LAKE    PTCLDY   N/A N/A N/A MISG        N/A
FARGO          CLEAR    -11 -17  75 SW6       30.49S WCI -25
WAHPETON ARPT  SUNNY     -9 -15  77 CALM      30.51S
$$

 ***** WEATHER ACROSS CENTRAL AND WESTERN NORTH DAKOTA  *****

CITY           SKY/WX    TMP DP  RH WIND       PRES   REMARKS
BISMARCK       PTCLDY   -13 -18  78 E5        30.42S WCI -25
MINOT          MOCLDY    -7 -13  75 SW13      30.34F WCI -27
JAMESTOWN      MOCLDY   -13 -19  75 W7        30.42R WCI -29
MINOT AFB      MOCLDY   -13 -17  82 S6        30.34F WCI -27
GARRISON         N/A    -14 -19  79 CALM      30.35F
WILLISTON      MOCLDY   -11 -15  82 CALM      30.29F
DICKINSON      CLEAR     -6 -12  75 S10       30.24F WCI -24
HETTINGER      CLEAR     -5 -11  75 SE7       30.27F WCI -19
$$

 *****  OTHER AIRPORT OBSERVATIONS IN OUR AREA  *****

CITY           SKY/WX    TMP DP  RH WIND       PRES   REMARKS
WALHALLA         N/A     -2 -13  60 W10G16    30.38F WCI -19
GRAFTON AIRPOR NOT AVBL
VALLEY CITY AR FAIR     -11 -17  77 W7        30.43S WCI -26
CANDO          FAIR     -17 -22  76 W8        30.38S WCI -34
CAVALIER APRT  FAIR      -4 N/A N/A W8        30.40S WCI -19
GWINNER        SUNNY     -8 -15  71 SW13      30.48S WCI -28
SHEYENNE NWR     N/A    -16 -24  68 W5        29.95S WCI -29
ROLLA          FAIR      -8 -13  77 S3        30.31F
 ***** THE ABOVE OBSERVATIONS ARE NON NWS ARE NOT QUALITY
       CONTROLLED AND MAY MIS-REPORT RAIN FOR SNOW...
$$

  *****  WEATHER ACROSS NORTHERN MINNESOTA  *****

CITY           SKY/WX    TMP DP  RH WIND       PRES   REMARKS
FLAG ISLAND    MOCLDY   -13 -18  77 S3        30.33F
WARROAD        MOCLDY    -9 -15  77 SW6       30.36S WCI -23
ROSEAU         PTCLDY    -9 -17  70 SW9       30.37F WCI -27
HALLOCK        MOCLDY   -17 -22  76 S8        30.40F WCI -34
THF RVR FALLS  PTCLDY   -15 N/A N/A SW7       30.40S WCI -31
BAUDETTE       MOCLDY   -15 -21  74 S7        30.35S WCI -31
WASKISH        MOCLDY   -17 -20  83 CALM      30.38S
CROOKSTON      MOCLDY   -15 -20  76 S6        30.46S WCI -29
STEPHEN NDAWN    N/A    -13 -18  77 SW7         N/A  WCI -29
GREENBUSH NDAW   N/A    -15 -18  84 VRB5        N/A  WCI -27
$$
  *****  WEATHER ACROSS CENTRAL AND WEST MINNESOTA  *****

CITY           SKY/WX    TMP DP  RH WIND       PRES   REMARKS
FOSSTON        FAIR     -18 -22  83 S7        30.42S WCI -35
BEMIDJI        PTCLDY   -12 -16  82 CALM      30.39S
PARK RAPIDS    PTCLDY   -15 -23  67 SW3       30.41R
ELBOW LAKE     FAIR     -14 -18  82 SW3       30.48S
WADENA         PTCLDY   -15 -18  84 CALM      30.43F
DETROIT LAKES  PTCLDY   -13 -17  84 SW3       30.44S
MOORHEAD       FAIR      -9 -11  92 S5        30.49S WCI -21
FERGUS FALLS   CLEAR     -9 -17  70 CALM      30.53S
MORRIS MN      CLEAR    -11 -17  77 W5        30.49F WCI -23
STAPLES        PTCLDY   -13 -17  84 CALM      30.44S
$$
  *****  WEATHER ELSEWHERE ACROSS MINNESOTA  *****

CITY           SKY/WX    TMP DP  RH WIND       PRES   REMARKS
DULUTH         CLEAR    -10 -16  74 NW7       30.37S WCI -25
INTRNTL FALLS  MOCLDY   -20 -26  74 SW3       30.36S
ELY            MOCLDY   -17 -20  83 CALM      30.35S
CLOQUET        PTCLDY   -11 -17  77 W6        30.41R WCI -25
WHEATON        CLEAR    -11 -17  77 SW3       30.52F
BRAINERD       PTCLDY   -17 -21  82 CALM      30.45S
HIBBING        MOCLDY   -23 -29  73 CALM      30.38S
ALEXANDRIA     PTCLDY    -7 -18  59 W7        30.45S WCI -21
SAINT CLOUD    CLEAR     -8 -13  78 SW3       30.50S
MINNEAPOLIS    CLEAR     -5 -11  75 SW6       30.54R WCI -18
$$

  *****  WEATHER ACROSS SOUTH DAKOTA  *****

CITY           SKY/WX    TMP DP  RH WIND       PRES   REMARKS
SIOUX FALLS    PTCLDY    -9 -14  78 W3        30.53R
BROOKINGS      NOT AVBL
WATERTOWN      MOCLDY   -13 -19  75 S5        30.45S WCI -25
HURON          MOCLDY   -17 -22  78 CALM      30.53S
SISSETON         N/A     -8 -13  78 CALM      30.49S
ABERDEEN       CLEAR    -19 -25  73 S5        30.51S WCI -32
MITCHELL       CLEAR     -6 -11  79 CALM      30.55S
PIERRE         CLEAR    -10 -13  86 CALM      30.44F
MOBRIDGE       PTCLDY    -7 -13  75 SE6       30.40S WCI -20
RAPID CITY     CLEAR     -4  -9  79 SE8       30.23F WCI -19
$$

  *****  SOME WEATHER IN NEARBY STATES *****

CITY           SKY/WX    TMP DP  RH WIND       PRES   REMARKS
GLASGOW MT     CLEAR     -1  -8  72 E12       30.14F WCI -18
GREAT FALLS MT PTCLDY    10   3  73 S6        29.90F WCI   0
CHEYENNE WY    CLOUDY     3   0  87 S13       29.94S FOG     WCI -14
SCOTTSBLUFF NE FLURRIES   7   0  73 SE13      30.19F WCI  -9
OMAHA NE       CLEAR     -1  -7  75 CALM      30.62R
DES MOINES IA  CLEAR     -7 -13  75 NW5       30.59S WCI -18
DAVENPORT IA   PTCLDY   -17 -22  78 W3        30.58R
CHICAGO IL     PTCLDY     0 -10  63 NW9       30.52R WCI -15
EAU CLAIRE WI  CLEAR     -9 -16  71 SW3       30.51R
LA CROSSE WI   CLEAR     -9 -15  75 S5        30.56R WCI -20
$$

  *****  SOME NATIONAL WEATHER *****

CITY           SKY/WX    TMP DP  RH WIND       PRES   REMARKS
LA GUARDIA NY  MOSUNNY   19   6  57 N10       30.36R WCI   7
RALEIGH NC     MOSUNNY   26  25  96 CALM      30.32R FOG
ATLANTA GA     PTCLDY    30  24  78 NW14      30.32R WCI  19
NEW ORLEANS LA MOCLDY    37  30  75 NE20G25   30.39R
OKLAHOMA CITY  CLOUDY    19   1  45 NE16      30.48R WCI   4
ALBUQUERQUE NM CLOUDY    23  16  74 E18       29.96F WCI   9
SALT LAKE CITY CLOUDY    31  25  78 S8        29.84S WCI  23
LOS ANGELES CA MOCLDY    53  51  93 E3        29.83R
BOISE ID       CLOUDY    37  30  75 SE6       29.80S
SEATTLE WA     LGT RAIN  46  44  93 NE8       29.72F
$$

*** WEATHER ACROSS MANITOBA...SASKATCHEWAN AND ONTARIO ***
                ***ONTARIO***

CITY           SKY/WX    TMP DP  RH WIND       PRES   REMARKS
GERALDTON      PTCLDY    -8 -13  77 W8        30.18S WCI -23
THUNDER BAY    CLEAR    -17 -20  83 W3        30.37F
SIOUX LOOKOUT  PTCLDY   -15 -20  76 SW6       30.24F WCI -29
TORONTO        MOCLDY     0  -8  71 W7        30.43R WCI -13
BIG TROUT LK   MOCLDY     1  -9  60 W14G22    29.95S WCI -17
PICKLE LAKE    PTCLDY    -8 -17  65 W13G18    30.11S WCI -28
DRYDEN         CLEAR    -13 -18  77 SW10      30.26F WCI -32
KENORA         PTCLDY   -15 -18  84 SW7       30.29F WCI -31
$$
                *** MANITOBA***

CITY           SKY/WX    TMP DP  RH WIND       PRES   REMARKS
BRANDON        CLEAR    -20 -26  76 W7        30.35F WCI -37
DAUPHIN        CLEAR      0 -11  60 W10       30.28F WCI -17
ISLAND LAKE    MOCLDY    -4 -15  59 SW9       30.04F WCI -20
PILOT MOUND      N/A    -17 -20  83 SW6         N/A  WCI -31
THE PAS        CLOUDY    -2 -11  65 W15       30.14F WCI -22
THOMPSON       MOCLDY     3  -6  66 W9        29.97S WCI -11
WINNIPEG       PTCLDY    -9 -17  70 SW7       30.37S WCI -24
LYNN LAKE      FLURRIES   3   0  85 NW15G22   30.00R WCI -15
CHURCHILL      CRYSTALS   1  -2  85 NW15      29.86R DRFTSNOWWCI -18
GILLAM         FLURRIES   5   0  78 W8        29.90S WCI  -8
$$
                ***SASKATCHEWAN***

CITY           SKY/WX    TMP DP  RH WIND       PRES   REMARKS
ESTEVAN        MOCLDY   -18 -24  76 S6        30.27F WCI -33
KINDERSLEY     MOCLDY    -8 -11  84 SW5       30.09S WCI -19
LLOYDMINSTER   CLOUDY    -2  -8  78 NW6       30.09S WCI -14
PRINCE ALBERT  MOCLDY   -24 -29  76 VRB2      30.18F
REGINA         PTCLDY   -17 -22  76 SE9       30.21F WCI -36
YORKTON        CLEAR     -9 -15  77 SW14G20   30.23F WCI -31
N. BATTLEFORD  MOCLDY   -15 -20  76 CALM      30.16F
LA RONGE       FLURRIES   3  -6  66 W6        30.13S WCI  -8
SASKATOON      MOCLDY   -13 -18  77 S8        30.18F WCI -30
SWIFT CURRENT  MOCLDY     0  -6  78 S16       30.04F WCI -21
$$
NOTE: THESE ARE AUTOMATED STATIONS WITH LIMITED QUALITY CONTROL
      "FAIR" INDICATES FEW OR NO CLOUDS BELOW 12,000 FEET WITH NO
      SIGNIFICANT WEATHER AND/OR OBSTRUCTIONS TO VISIBILITY.
      SKY/WX - SKY CONDITION AND SIGNIFICANT WEATHER.
      TMP - AIR TEMPERATURE.    DP   - DEWPOINT TEMPERATURE.
      RH  - RELATIVE HUMIDITY.  PRES - PRESSURE.
      HX  - HEAT INDEX.         WCI  - WIND CHILL INDEX.
$


USA.gov is the U.S. government's official web portal to all federal, state and local government web resources and services.